| time (UTC) | temp F | wind direction | speed MPH | gust MPH | rain 1hr in | rain 24hr in | rain mn in | humidity % | barometer mb |
| 20260504081549 | 49 | 0 | 0.0 | 4.0 | 0.00 | 0.00 | 0.00 | 79 | 1017.1 |
| 20260504044536 | 55 | 259 | 1.0 | 6.0 | 0.00 | 0.00 | 0.00 | 61 | 1017.2 |
| 20260504043035 | 56 | 277 | 1.0 | 4.0 | 0.00 | 0.00 | 0.00 | 61 | 1017.3 |
| 20260504041534 | 56 | 286 | 1.0 | 4.0 | 0.00 | 0.00 | 0.00 | 59 | 1017.4 |
| 20260504040043 | 57 | 285 | 2.0 | 7.0 | 0.00 | 0.00 | 0.00 | 58 | 1017.4 |
| 20260504034542 | 58 | 290 | 4.0 | 10.0 | 0.00 | 0.00 | 0.00 | 57 | 1017.5 |
| 20260504033040 | 58 | 286 | 2.0 | 11.0 | 0.00 | 0.00 | 0.00 | 57 | 1017.4 |
| 20260504031539 | 59 | 268 | 1.0 | 7.0 | 0.00 | 0.00 | 0.00 | 55 | 1017.4 |
| 20260504030036 | 60 | 284 | 3.0 | 9.0 | 0.00 | 0.00 | 0.00 | 53 | 1017.2 |
| 20260504024536 | 60 | 269 | 2.0 | 11.0 | 0.00 | 0.00 | 0.00 | 51 | 1017.1 |
| 20260504023043 | 61 | 312 | 3.0 | 9.0 | 0.00 | 0.00 | 0.00 | 51 | 1017.0 |
| 20260504021542 | 61 | 268 | 3.0 | 10.0 | 0.00 | 0.00 | 0.00 | 50 | 1016.8 |
| 20260504020039 | 61 | 273 | 5.0 | 9.0 | 0.00 | 0.00 | 0.00 | 49 | 1016.6 |
| 20260504014552 | 61 | 302 | 3.0 | 9.0 | 0.00 | 0.00 | 0.00 | 49 | 1016.4 |
| 20260504013047 | 61 | 279 | 3.0 | 7.0 | 0.00 | 0.00 | 0.00 | 50 | 1016.3 |
| 20260504011536 | 62 | 0 | 3.0 | 8.0 | 0.00 | 0.00 | 0.00 | 49 | 1016.1 |
| 20260504010051 | 62 | 232 | 1.0 | 7.0 | 0.00 | 0.00 | 0.00 | 50 | 1016.1 |
| 20260504004541 | 62 | 285 | 2.0 | 6.0 | 0.00 | 0.00 | 0.00 | 49 | 1016.0 |
| 20260504003042 | 63 | 0 | 0.0 | 7.0 | 0.00 | 0.00 | 0.00 | 49 | 1015.8 |
| 20260504001547 | 64 | 0 | 1.0 | 6.0 | 0.00 | 0.00 | 0.00 | 48 | 1015.7 |
| 20260504000043 | 65 | 0 | 1.0 | 5.0 | 0.00 | 0.00 | 0.00 | 46 | 1015.6 |
| 20260503234550 | 66 | 242 | 2.0 | 5.0 | 0.00 | 0.00 | 0.00 | 45 | 1015.6 |
| 20260503233048 | 67 | 231 | 3.0 | 10.0 | 0.00 | 0.00 | 0.00 | 42 | 1015.5 |
| 20260503231543 | 68 | 254 | 3.0 | 10.0 | 0.00 | 0.00 | 0.00 | 42 | 1015.6 |
| 20260503230039 | 69 | 271 | 5.0 | 12.0 | 0.00 | 0.00 | 0.00 | 41 | 1015.7 |
| 20260503224539 | 69 | 209 | 4.0 | 11.0 | 0.00 | 0.00 | 0.00 | 39 | 1015.7 |
| 20260503223035 | 69 | 204 | 4.0 | 14.0 | 0.00 | 0.00 | 0.00 | 38 | 1015.7 |
| 20260503221544 | 70 | 209 | 3.0 | 10.0 | 0.00 | 0.00 | 0.00 | 37 | 1015.8 |
| 20260503220047 | 70 | 218 | 4.0 | 13.0 | 0.00 | 0.00 | 0.00 | 37 | 1015.9 |
| 20260503214540 | 70 | 186 | 3.0 | 11.0 | 0.00 | 0.00 | 0.00 | 37 | 1016.0 |
| 20260503213035 | 70 | 225 | 3.0 | 10.0 | 0.00 | 0.00 | 0.00 | 37 | 1016.1 |
| 20260503211534 | 70 | 240 | 5.0 | 10.0 | 0.00 | 0.00 | 0.00 | 36 | 1016.2 |
| 20260503210044 | 69 | 215 | 4.0 | 11.0 | 0.00 | 0.00 | 0.00 | 37 | 1016.2 |
| 20260503204557 | 69 | 325 | 4.0 | 12.0 | 0.00 | 0.00 | 0.00 | 40 | 1016.5 |
| 20260503203042 | 69 | 205 | 4.0 | 14.0 | 0.00 | 0.00 | 0.00 | 39 | 1016.6 |
| 20260503201541 | 69 | 190 | 3.0 | 11.0 | 0.00 | 0.00 | 0.00 | 39 | 1016.9 |
| 20260503200045 | 69 | 232 | 4.0 | 9.0 | 0.00 | 0.00 | 0.00 | 38 | 1017.3 |
| 20260503194543 | 69 | 254 | 6.0 | 11.0 | 0.00 | 0.00 | 0.00 | 38 | 1017.6 |
| 20260503193039 | 69 | 290 | 3.0 | 9.0 | 0.00 | 0.00 | 0.00 | 38 | 1017.9 |
| 20260503191543 | 68 | 226 | 4.0 | 10.0 | 0.00 | 0.00 | 0.00 | 42 | 1018.1 |
| 20260503190049 | 67 | 173 | 4.0 | 14.0 | 0.00 | 0.00 | 0.00 | 42 | 1018.4 |
| 20260503184539 | 67 | 166 | 4.0 | 9.0 | 0.00 | 0.00 | 0.00 | 39 | 1018.6 |
| 20260503183035 | 67 | 159 | 5.0 | 12.0 | 0.00 | 0.00 | 0.00 | 41 | 1018.7 |
| 20260503181535 | 66 | 275 | 3.0 | 9.0 | 0.00 | 0.00 | 0.00 | 41 | 1018.9 |
| 20260503180051 | 66 | 14 | 5.0 | 10.0 | 0.00 | 0.00 | 0.00 | 42 | 1018.8 |
| 20260503174543 | 65 | 296 | 2.0 | 8.0 | 0.00 | 0.00 | 0.00 | 44 | 1019.1 |
| 20260503173117 | 64 | 0 | 2.0 | 8.0 | 0.00 | 0.00 | 0.00 | 46 | 1019.2 |
| 20260503171546 | 65 | 339 | 6.0 | 11.0 | 0.00 | 0.00 | 0.00 | 46 | 1019.5 |